カタログに戻る

IUS R/B(1)

運用中HEO
NORAD 20843·ROCKET BODY·🇺🇸 United States

打ち上げ Oct 6, 1990 から Cape Canaveral Space Force Station

Loading…

次のパス (今後24時間)

TLE

最新Source: Space-Track

元期: Sep 14, 2026, 09:23 UTC

1 20843U 90090C   26257.39123279  .00000391  00000-0  39104-3 0  9996
2 20843  28.5304  11.8824 6672913 243.6203  35.3770  3.04297742368212

AllMySatでIUS R/B(1)をリアルタイム追跡

Download on the App Store